[[{"header":{"parameterUnit":"m.s-1","parameterCategory":1,"la1":30.2991,"la2":30.254,"lo1":-89.0895,"lo2":-89.0444,"dy":0.0017,"dx":0.0017,"nx":28,"ny":28,"refTime":"2025-05-23T21:00:00:Z","depth":0,"parameterNumber":2,"parameterNumberName":"U-component_of_WINDS"},"data":[0,0,0,0,0,0,0,0,0,0,0,0,0,0,0,0,0,0,0,0,0,0,0,0,0,0,0,0,0,0,0,0,0,0,0,0,0,0,0,0,0,0,0,0,0,0,0,0,0,0,0,0,0,0,0,0,0,0,1.4469,1.447,0,1.4573,1.4575,1.4576,1.457,1.4568,1.4567,1.4566,1.4673,1.4678,1.4682,0,0,0,0,0,0,0,0,0,0,0,0,0,1.4265,1.4269,1.4469,1.4471,1.4472,1.4573,1.4575,1.4576,1.457,1.4568,1.4567,1.4565,1.4672,1.4677,1.4682,0,0,0,0,0,0,0,0,0,0,0,0,0,1.436,1.427,1.4469,1.4481,1.4483,1.4573,1.4575,1.4576,1.4571,1.4568,1.4566,1.4564,1.467,1.4677,1.4683,1.4768,0,0,1.4702,1.4705,0,0,0,0,0,0,0,0,1.4355,1.4368,1.4478,1.448,1.4483,1.4556,1.4542,1.4641,1.4571,1.4538,1.4566,1.4563,1.4636,1.4645,1.467,1.4773,1.4777,1.4703,1.4707,1.471,1.4712,0,0,0,0,0,0,0,1.4348,1.4363,1.451,1.448,1.4483,1.4481,1.4492,1.4561,1.4598,1.454,1.454,1.4552,1.4637,1.4664,1.4672,1.4779,1.4703,1.4709,1.4713,1.4715,1.4955,1.4957,0,0,0,0,0,0,1.4339,1.4358,1.4507,1.4514,1.4412,1.4487,1.4499,1.4535,1.4598,1.4605,1.4554,1.4552,1.4654,1.4665,1.4676,1.4778,1.471,1.4716,1.4719,1.4952,1.4955,1.4958,0,0,0,0,0,0,1.4335,1.4352,1.4503,1.4436,1.4455,1.4493,1.4533,1.4538,1.4565,1.4608,1.4615,1.4574,1.4653,1.4667,1.4744,1.4782,1.4719,1.4724,1.4949,1.4953,1.4956,1.4984,0,0,0,0,0,0,1.4329,1.4351,1.4384,1.4436,1.4458,1.457,1.4536,1.4542,1.4576,1.4574,1.4629,1.4636,1.4652,1.4735,1.4751,1.479,1.4729,1.4946,1.4951,1.4955,1.498,1.4988,1.4995,0,0,0,0,0,1.4321,1.4388,1.4385,1.4403,1.45,1.4572,1.4584,1.4601,1.4579,1.4612,1.4639,1.4634,1.4775,1.4743,1.4761,1.4802,1.4944,1.4949,1.4955,1.4976,1.4986,1.4995,0,0,0,0,0,0,1.4339,1.4395,1.4393,1.4478,1.452,1.4571,1.4613,1.4612,1.4661,1.4657,1.4676,1.4689,1.4766,1.4792,1.4755,1.4886,1.4857,1.4866,1.4867,1.4877,1.4884,1.4876,1.4735,0,0,0,0,0,1.4353,1.4406,1.4452,1.4523,1.4544,1.4575,1.4607,1.4616,1.466,1.4678,1.4712,1.4755,1.4809,1.4844,1.4897,1.4983,1.4995,1.5021,1.5028,1.5034,1.5042,1.5088,1.51,1.4976,1.4976,1.4976,0,0,1.4382,1.4419,1.4452,1.4528,1.4561,1.4616,1.459,1.4649,1.469,1.4688,1.4762,1.4788,1.4838,1.4919,1.4957,1.4943,1.5079,1.5042,1.5046,1.5051,1.5095,1.5107,1.5117,1.498,1.498,1.4979,0,0,1.4463,1.4496,1.4558,1.4592,1.4643,1.4663,1.4678,1.4728,1.4745,1.482,1.4819,1.4867,1.496,1.4995,1.5025,1.5117,1.5114,1.5134,1.5174,1.5219,1.5229,1.5237,1.5269,1.528,1.5142,1.5142,1.5142,0,1.4492,1.4575,1.4591,1.465,1.4683,1.4682,1.4744,1.4777,1.4842,1.4865,1.4848,1.4964,1.4998,1.5087,1.5109,1.5134,1.515,1.5128,1.5226,1.5235,1.5243,1.5273,1.5285,1.5144,1.5143,1.5143,1.5143,0,1.4608,1.4665,1.4709,1.4771,1.4809,1.487,1.4894,1.4931,1.4936,1.4957,1.5033,1.5073,1.5132,1.5154,1.5161,1.5244,1.5234,1.5222,1.5192,1.5257,1.5285,1.5297,1.5147,1.5146,1.5145,1.5145,0,0,1.4703,1.4772,1.4788,1.4816,1.4871,1.4915,1.4975,1.5033,1.5063,1.5108,1.5158,1.5236,1.5224,1.5258,1.5269,1.5308,1.5377,1.5291,1.5292,1.5304,1.5469,1.5478,1.5491,1.5375,1.5377,1.5379,1.5465,0,1.4789,1.4895,1.491,1.5004,1.5056,1.5056,1.5108,1.5147,1.5168,1.5215,1.5239,1.5293,1.5274,1.5295,1.5334,1.536,1.541,1.5354,1.5421,1.5423,1.5408,1.5506,1.5516,1.5595,1.5476,1.5478,1.548,0,1.4903,1.495,1.5048,1.5095,1.5117,1.5164,1.5217,1.5262,1.5306,1.5319,1.5356,1.5361,1.5423,1.539,1.5475,1.5437,1.5465,1.5482,1.5485,1.5492,1.5455,1.5514,1.5621,1.5632,1.5498,1.5496,1.5495,0,1.4961,1.5049,1.5119,1.5142,1.5199,1.5231,1.5257,1.5299,1.5331,1.5378,1.5399,1.5453,1.5482,1.5523,1.5542,1.5516,1.5625,1.5594,1.5636,1.5636,1.5659,1.5657,1.577,1.5678,1.5678,1.5678,1.5678,0,1.5054,1.5114,1.5145,1.5188,1.5255,1.5272,1.5337,1.5362,1.5399,1.5446,1.5449,1.5493,1.5516,1.5563,1.5579,1.5646,1.5659,1.5671,1.5674,1.567,1.5668,1.5688,1.5683,1.5681,1.568,1.568,1.5679,0,1.513,1.5154,1.5229,1.5276,1.5289,1.5336,1.5376,1.5418,1.5438,1.5498,1.5513,1.5545,1.5601,1.5623,1.5693,1.5703,1.5779,1.5779,1.5764,1.5765,1.5805,1.58,1.5934,1.5952,1.5849,1.585,1.5851,0,1.5188,1.5234,1.5285,1.5317,1.5342,1.5394,1.5427,1.5445,1.5479,1.5532,1.5567,1.5623,1.5668,1.5757,1.5787,1.5839,1.5839,1.5883,1.5847,1.5841,1.5839,1.5835,1.5839,1.5889,1.589,1.5891,1.5891,0,1.5287,1.5296,1.5344,1.5395,1.5435,1.5476,1.5517,1.5542,1.5567,1.5605,1.5662,1.5697,1.5766,1.5821,1.5875,1.5901,1.59,1.5902,1.5914,1.5911,1.59,1.5905,1.5781,1.5899,1.5898,1.5898,1.5897,1.5897,1.5355,1.5395,1.5437,1.549,1.5522,1.5559,1.56,1.5625,1.5672,1.573,1.5738,1.5798,1.584,1.5912,1.5939,1.5986,1.5975,1.5994,1.5998,1.6002,1.6004,1.5892,1.5997,1.5996,1.5996,1.5996,1.5996,0,1.5453,1.548,1.5528,1.5584,1.5625,1.5621,1.5665,1.5699,1.5752,1.5791,1.5835,1.59,1.5953,1.5986,1.6039,1.607,1.6071,1.6083,1.6081,1.6086,1.6011,1.5995,1.6081,1.6081,1.6081,1.6081,1.6081,1.6081,1.5509,1.5577,1.559,1.5673,1.5699,1.5758,1.5783,1.5817,1.5848,1.592,1.5963,1.5984,1.6021,1.6076,1.6124,1.6132,1.6151,1.6164,1.6171,1.6101,1.6092,1.6083,1.6068,1.6168,1.6168,1.6242,1.6243,1.6243]},{"header":{"parameterUnit":"m.s-1","parameterCategory":1,"la1":30.2991,"la2":30.254,"lo1":-89.0895,"lo2":-89.0444,"dy":0.0017,"dx":0.0017,"nx":28,"ny":28,"refTime":"2025-05-23T21:00:00:Z","depth":0,"parameterNumber":3,"parameterNumberName":"V-component_of_WINDS"},"data":[0,0,0,0,0,0,0,0,0,0,0,0,0,0,0,0,0,0,0,0,0,0,0,0,0,0,0,0,0,0,0,0,0,0,0,0,0,0,0,0,0,0,0,0,0,0,0,0,0,0,0,0,0,0,0,0,0,0,3.6464,3.6465,0,3.6573,3.6574,3.6575,3.6539,3.6536,3.6534,3.6532,3.6636,3.6641,3.6646,0,0,0,0,0,0,0,0,0,0,0,0,0,3.6216,3.622,3.6464,3.6465,3.6467,3.6573,3.6574,3.6576,3.6539,3.6536,3.6533,3.653,3.6635,3.6641,3.6647,0,0,0,0,0,0,0,0,0,0,0,0,0,3.6324,3.6222,3.6464,3.6461,3.6462,3.6573,3.6574,3.6576,3.654,3.6536,3.6532,3.6529,3.6633,3.664,3.6647,3.6765,0,0,3.667,3.6674,0,0,0,0,0,0,0,0,3.6318,3.6333,3.646,3.6462,3.6463,3.6539,3.6525,3.6639,3.654,3.651,3.6532,3.6527,3.6606,3.6616,3.6644,3.677,3.6774,3.6671,3.6676,3.6679,3.6681,0,0,0,0,0,0,0,3.631,3.6328,3.6507,3.6462,3.6464,3.6452,3.6463,3.6547,3.6576,3.6512,3.651,3.6524,3.6606,3.6637,3.6646,3.6776,3.6671,3.6678,3.6682,3.6685,3.7001,3.7005,0,0,0,0,0,0,3.6303,3.6322,3.6503,3.651,3.638,3.6459,3.6472,3.6518,3.6576,3.6581,3.6527,3.6522,3.6626,3.6637,3.6649,3.679,3.6679,3.6686,3.669,3.6997,3.7002,3.7006,0,0,0,0,0,0,3.6298,3.632,3.6499,3.6416,3.6437,3.6468,3.6519,3.6522,3.6552,3.6586,3.6591,3.6553,3.6623,3.6639,3.6736,3.6793,3.6689,3.6696,3.6993,3.6999,3.7004,3.7072,0,0,0,0,0,0,3.6291,3.6318,3.6365,3.6417,3.6442,3.6587,3.6522,3.6526,3.6566,3.6561,3.6612,3.6617,3.6622,3.6726,3.6744,3.6801,3.6702,3.6988,3.6995,3.7002,3.7065,3.708,3.7092,0,0,0,0,0,3.6282,3.6378,3.6368,3.639,3.6502,3.659,3.6604,3.661,3.6571,3.6617,3.6638,3.6615,3.6784,3.6736,3.6756,3.6817,3.6984,3.6993,3.7002,3.7059,3.7077,3.7092,0,0,0,0,0,0,3.633,3.6385,3.6374,3.649,3.6536,3.6584,3.6642,3.6628,3.6684,3.6676,3.6678,3.669,3.679,3.6813,3.6759,3.6932,3.6878,3.6891,3.6914,3.6931,3.6945,3.6937,3.6708,0,0,0,0,0,3.6355,3.6424,3.6467,3.6566,3.659,3.6612,3.6651,3.6651,3.6697,3.6716,3.6745,3.6789,3.6851,3.6892,3.6952,3.7068,3.7077,3.7119,3.7133,3.7144,3.7155,3.7216,3.7235,3.7035,3.7035,3.7035,0,0,3.6405,3.6444,3.6487,3.6576,3.6612,3.6682,3.6629,3.6705,3.6756,3.6727,3.6821,3.6844,3.6893,3.7,3.7048,3.7022,3.7212,3.7155,3.7163,3.7169,3.7227,3.7246,3.7263,3.7041,3.704,3.7039,0,0,3.6533,3.657,3.6656,3.6693,3.6748,3.6762,3.6782,3.6832,3.6847,3.6942,3.6922,3.6981,3.7089,3.7125,3.7157,3.7297,3.7277,3.7316,3.7387,3.7446,3.7462,3.7476,3.7525,3.7543,3.7327,3.7327,3.7327,0,3.6588,3.6695,3.6701,3.6779,3.6818,3.6797,3.6882,3.6917,3.6988,3.7014,3.6983,3.7119,3.715,3.7264,3.7299,3.7326,3.7347,3.731,3.746,3.7474,3.7487,3.7534,3.7552,3.7331,3.7331,3.7331,3.733,0,3.6759,3.6833,3.6895,3.6967,3.7013,3.7094,3.711,3.7155,3.715,3.7167,3.7263,3.73,3.7366,3.7393,3.7389,3.7506,3.7488,3.7459,3.7404,3.751,3.7554,3.7572,3.7338,3.7336,3.7335,3.7334,0,0,3.6921,3.6995,3.7017,3.7049,3.7108,3.7164,3.7243,3.731,3.7348,3.7397,3.7462,3.7554,3.7527,3.7563,3.7563,3.7615,3.7722,3.7579,3.758,3.7604,3.7853,3.7875,3.7895,3.771,3.7713,3.7716,3.7849,0,3.7053,3.7196,3.7202,3.7331,3.7398,3.7378,3.7447,3.7489,3.7506,3.7563,3.758,3.7646,3.7606,3.7628,3.7679,3.7699,3.7772,3.7689,3.7768,3.7771,3.7757,3.7919,3.7942,3.8065,3.7866,3.7869,3.7871,0,3.7227,3.7284,3.742,3.7468,3.7496,3.7558,3.762,3.7676,3.7722,3.773,3.7771,3.7762,3.784,3.7783,3.7889,3.7833,3.7865,3.7879,3.7884,3.7892,3.7828,3.793,3.8105,3.8124,3.7898,3.7896,3.7894,0,3.7331,3.7441,3.7536,3.7564,3.7623,3.7666,3.7692,3.7735,3.7775,3.7827,3.7852,3.7912,3.7945,3.7991,3.7997,3.7955,3.8104,3.8047,3.8111,3.8111,3.8144,3.8141,3.8326,3.8165,3.8165,3.8164,3.8164,0,3.7478,3.7561,3.7583,3.7642,3.7734,3.774,3.783,3.7852,3.789,3.7951,3.7936,3.7992,3.7998,3.8056,3.8061,3.8148,3.8162,3.817,3.817,3.8171,3.817,3.8192,3.8184,3.8169,3.8168,3.8167,3.8166,0,3.7609,3.7628,3.773,3.7778,3.7792,3.7858,3.7897,3.7952,3.7967,3.8043,3.8061,3.8085,3.8151,3.8163,3.8241,3.8244,3.8348,3.8339,3.8333,3.8332,3.8395,3.8389,3.8601,3.8628,3.8449,3.8451,3.8452,0,3.7702,3.7766,3.7822,3.7862,3.7891,3.7957,3.7997,3.8004,3.8047,3.8104,3.8151,3.8217,3.827,3.8377,3.8399,3.8458,3.845,3.852,3.8459,3.8458,3.8451,3.8447,3.8453,3.8532,3.8534,3.8536,3.8537,0,3.7865,3.787,3.7931,3.7995,3.8044,3.8094,3.8141,3.8174,3.8187,3.8235,3.8304,3.8346,3.8426,3.849,3.8549,3.8573,3.8557,3.8556,3.8574,3.8576,3.8569,3.8573,3.8365,3.8551,3.855,3.8549,3.8548,3.8547,3.7979,3.8035,3.8083,3.815,3.8187,3.8231,3.8285,3.8307,3.8366,3.8434,3.8433,3.8509,3.8551,3.8628,3.8656,3.8713,3.869,3.8716,3.8723,3.8729,3.8735,3.856,3.8724,3.8723,3.8723,3.8723,3.8722,0,3.8141,3.817,3.8233,3.83,3.8352,3.8335,3.8385,3.843,3.8497,3.8539,3.8592,3.8671,3.8733,3.876,3.8821,3.8861,3.8855,3.8877,3.8874,3.8879,3.8752,3.8731,3.8881,3.8881,3.8881,3.8881,3.8881,3.8881,3.8231,3.8324,3.8336,3.8446,3.8474,3.855,3.858,3.862,3.8654,3.8743,3.8796,3.8814,3.8849,3.8912,3.8967,3.8973,3.8996,3.9021,3.9024,3.8905,3.8889,3.8873,3.8853,3.9026,3.9026,3.9146,3.9147,3.9148]}]]